Time,TemperatureF,DewpointF,PressureIn,WindDirection,WindDirectionDegrees,WindSpeedMPH,WindSpeedGustMPH,Humidity,HourlyPrecipIn,Conditions,Clouds,dailyrainin,SolarRadiationWatts/m^2,SoftwareType,DateUTC
2013-03-19 00:02:00,62.0,62.0,-100.00,NNW,339,7.0,11.0,100,0.00,,,0.00,0.000000,,2013-03-19 05:02:00,
2013-03-19 00:32:00,61.0,60.0,-100.00,North,349,8.0,16.0,97,0.00,,,0.00,0.000000,,2013-03-19 05:32:00,
2013-03-19 00:43:00,61.0,60.0,-100.00,North,349,8.0,16.0,97,0.00,,,0.00,0.000000,,2013-03-19 05:43:00,
2013-03-19 00:52:00,61.0,60.0,-100.00,North,349,8.0,16.0,97,0.00,,,0.00,0.000000,,2013-03-19 05:52:00,
2013-03-19 01:02:00,61.0,60.0,-100.00,North,349,8.0,16.0,97,0.00,,,0.00,0.000000,,2013-03-19 06:02:00,
2013-03-19 01:32:00,60.0,59.0,-100.00,NNW,333,7.0,15.0,96,0.00,,,0.00,0.000000,,2013-03-19 06:32:00,
2013-03-19 01:42:00,60.0,59.0,-100.00,NNW,333,7.0,15.0,96,0.00,,,0.00,0.000000,,2013-03-19 06:42:00,
2013-03-19 01:52:00,60.0,59.0,-100.00,NNW,333,7.0,15.0,96,0.00,,,0.00,0.000000,,2013-03-19 06:52:00,
2013-03-19 02:02:00,60.0,59.0,-100.00,NNW,333,7.0,15.0,96,0.00,,,0.00,0.000000,,2013-03-19 07:02:00,
2013-03-19 02:32:00,56.0,53.0,-100.00,North,354,10.0,17.0,89,0.00,,,0.00,0.000000,,2013-03-19 07:32:00,
2013-03-19 02:42:00,56.0,53.0,-100.00,North,354,10.0,17.0,89,0.00,,,0.00,0.000000,,2013-03-19 07:42:00,
2013-03-19 02:53:00,56.0,53.0,-100.00,North,354,10.0,17.0,89,0.00,,,0.00,0.000000,,2013-03-19 07:53:00,
2013-03-19 03:03:00,56.0,53.0,-100.00,North,354,10.0,17.0,89,0.00,,,0.00,0.000000,,2013-03-19 08:03:00,
2013-03-19 03:33:00,54.0,47.0,-100.00,NNE,18,9.0,21.0,76,0.00,,,0.00,0.000000,,2013-03-19 08:33:00,
2013-03-19 03:43:00,54.0,47.0,-100.00,NNE,18,9.0,21.0,76,0.00,,,0.00,0.000000,,2013-03-19 08:43:00,
2013-03-19 03:52:00,54.0,47.0,-100.00,NNE,18,9.0,21.0,76,0.00,,,0.00,0.000000,,2013-03-19 08:52:00,
2013-03-19 04:02:00,54.0,47.0,-100.00,NNE,18,9.0,21.0,76,0.00,,,0.00,0.000000,,2013-03-19 09:02:00,
2013-03-19 04:33:00,52.0,45.0,-100.00,NNE,27,9.0,17.0,78,0.00,,,0.00,0.000000,,2013-03-19 09:33:00,
2013-03-19 04:43:00,52.0,45.0,-100.00,NNE,27,9.0,17.0,78,0.00,,,0.00,0.000000,,2013-03-19 09:43:00,
2013-03-19 04:53:00,52.0,45.0,-100.00,NNE,27,9.0,17.0,78,0.00,,,0.00,0.000000,,2013-03-19 09:53:00,
2013-03-19 05:03:00,52.0,45.0,-100.00,NNE,27,9.0,17.0,78,0.00,,,0.00,0.000000,,2013-03-19 10:03:00,
2013-03-19 05:33:00,51.0,44.0,-100.00,NNE,28,10.0,17.0,77,0.00,,,0.00,0.000000,,2013-03-19 10:33:00,
2013-03-19 05:42:00,51.0,44.0,-100.00,NNE,28,10.0,17.0,77,0.00,,,0.00,0.000000,,2013-03-19 10:42:00,
2013-03-19 05:53:00,51.0,44.0,-100.00,NNE,28,10.0,17.0,77,0.00,,,0.00,0.000000,,2013-03-19 10:53:00,
2013-03-19 06:02:00,51.0,44.0,-100.00,NNE,28,10.0,17.0,77,0.00,,,0.00,0.000000,,2013-03-19 11:02:00,
2013-03-19 06:33:00,49.0,43.0,-100.00,NE,44,7.0,16.0,80,0.00,,,0.00,0.000000,,2013-03-19 11:33:00,
2013-03-19 06:43:00,49.0,43.0,-100.00,NE,44,7.0,16.0,80,0.00,,,0.00,0.000000,,2013-03-19 11:43:00,
2013-03-19 06:52:00,49.0,43.0,-100.00,NE,44,7.0,16.0,80,0.00,,,0.00,0.000000,,2013-03-19 11:52:00,
2013-03-19 07:02:00,49.0,43.0,-100.00,NE,44,7.0,16.0,80,0.00,,,0.00,0.000000,,2013-03-19 12:02:00,
2013-03-19 08:33:00,50.0,41.0,-100.00,ENE,67,9.0,14.0,72,-99.99,,,0.00,70.000000,,2013-03-19 13:33:00,
2013-03-19 08:42:00,50.0,41.0,-100.00,ENE,67,9.0,14.0,72,-99.99,,,0.00,70.000000,,2013-03-19 13:42:00,
2013-03-19 08:53:00,50.0,41.0,-100.00,ENE,67,9.0,14.0,72,-99.99,,,0.00,70.000000,,2013-03-19 13:53:00,
2013-03-19 09:02:00,50.0,41.0,-100.00,ENE,67,9.0,14.0,72,-99.99,,,0.00,70.000000,,2013-03-19 14:02:00,
2013-03-19 09:33:00,54.0,39.0,-100.00,ENE,78,10.0,17.0,57,0.00,,,0.00,277.000000,,2013-03-19 14:33:00,
2013-03-19 09:42:00,54.0,39.0,-100.00,ENE,78,10.0,17.0,57,0.00,,,0.00,277.000000,,2013-03-19 14:42:00,
2013-03-19 09:52:00,54.0,39.0,-100.00,ENE,78,10.0,17.0,57,0.00,,,0.00,277.000000,,2013-03-19 14:52:00,
2013-03-19 10:02:00,54.0,39.0,-100.00,ENE,78,10.0,17.0,57,0.00,,,0.00,277.000000,,2013-03-19 15:02:00,
2013-03-19 10:34:00,59.0,36.0,-100.00,ENE,78,10.0,20.0,42,0.00,,,0.00,485.000000,,2013-03-19 15:34:00,
2013-03-19 10:44:00,59.0,36.0,-100.00,ENE,78,10.0,20.0,42,0.00,,,0.00,485.000000,,2013-03-19 15:44:00,
2013-03-19 10:53:00,59.0,36.0,-100.00,ENE,78,10.0,20.0,42,0.00,,,0.00,485.000000,,2013-03-19 15:53:00,
2013-03-19 11:04:00,59.0,36.0,-100.00,ENE,78,10.0,20.0,42,0.00,,,0.00,485.000000,,2013-03-19 16:04:00,
2013-03-19 11:34:00,62.0,33.0,-100.00,East,87,12.0,18.0,33,0.00,,,0.00,660.000000,,2013-03-19 16:34:00,
2013-03-19 11:44:00,62.0,33.0,-100.00,East,87,12.0,18.0,33,0.00,,,0.00,660.000000,,2013-03-19 16:44:00,
2013-03-19 11:54:00,62.0,33.0,-100.00,East,87,12.0,18.0,33,0.00,,,0.00,660.000000,,2013-03-19 16:54:00,
2013-03-19 12:03:00,62.0,33.0,-100.00,East,87,12.0,18.0,33,0.00,,,0.00,660.000000,,2013-03-19 17:03:00,
2013-03-19 12:34:00,67.0,34.0,-100.00,ENE,59,8.0,16.0,29,0.00,,,0.00,785.000000,,2013-03-19 17:34:00,
2013-03-19 12:44:00,67.0,34.0,-100.00,ENE,59,8.0,16.0,29,0.00,,,0.00,785.000000,,2013-03-19 17:44:00,
2013-03-19 12:53:00,67.0,34.0,-100.00,ENE,59,8.0,16.0,29,0.00,,,0.00,785.000000,,2013-03-19 17:53:00,
2013-03-19 13:03:00,67.0,34.0,-100.00,ENE,59,8.0,16.0,29,0.00,,,0.00,785.000000,,2013-03-19 18:03:00,
2013-03-19 13:34:00,70.0,33.0,-100.00,NE,45,7.0,14.0,25,0.00,,,0.00,850.000000,,2013-03-19 18:34:00,
2013-03-19 13:44:00,70.0,33.0,-100.00,NE,45,7.0,14.0,25,0.00,,,0.00,850.000000,,2013-03-19 18:44:00,
2013-03-19 13:53:00,70.0,33.0,-100.00,NE,45,7.0,14.0,25,0.00,,,0.00,850.000000,,2013-03-19 18:53:00,
2013-03-19 14:02:00,70.0,33.0,-100.00,NE,45,7.0,14.0,25,0.00,,,0.00,850.000000,,2013-03-19 19:02:00,
2013-03-19 14:33:00,73.0,34.0,-100.00,ENE,71,9.0,19.0,24,0.00,,,0.00,853.000000,,2013-03-19 19:33:00,
2013-03-19 14:43:00,73.0,34.0,-100.00,ENE,71,9.0,19.0,24,0.00,,,0.00,853.000000,,2013-03-19 19:43:00,
2013-03-19 14:53:00,73.0,34.0,-100.00,ENE,71,9.0,19.0,24,0.00,,,0.00,853.000000,,2013-03-19 19:53:00,
2013-03-19 15:03:00,73.0,34.0,-100.00,ENE,71,9.0,19.0,24,0.00,,,0.00,853.000000,,2013-03-19 20:03:00,
2013-03-19 15:33:00,75.0,36.0,-100.00,NNE,31,7.0,17.0,24,0.00,,,0.00,771.000000,,2013-03-19 20:33:00,
2013-03-19 15:43:00,75.0,36.0,-100.00,NNE,31,7.0,17.0,24,0.00,,,0.00,771.000000,,2013-03-19 20:43:00,
2013-03-19 15:53:00,75.0,36.0,-100.00,NNE,31,7.0,17.0,24,0.00,,,0.00,771.000000,,2013-03-19 20:53:00,
2013-03-19 16:02:00,75.0,36.0,-100.00,NNE,31,7.0,17.0,24,0.00,,,0.00,771.000000,,2013-03-19 21:02:00,
2013-03-19 16:43:00,75.0,36.0,-100.00,East,87,5.0,15.0,24,0.00,,,0.00,676.000000,,2013-03-19 21:43:00,
2013-03-19 16:53:00,75.0,36.0,-100.00,East,87,5.0,15.0,24,0.00,,,0.00,676.000000,,2013-03-19 21:53:00,
2013-03-19 17:03:00,75.0,36.0,-100.00,East,87,5.0,15.0,24,0.00,,,0.00,676.000000,,2013-03-19 22:03:00,
2013-03-19 17:34:00,75.0,37.0,-100.00,NE,38,5.0,14.0,25,0.00,,,0.00,487.000000,,2013-03-19 22:34:00,
2013-03-19 17:44:00,75.0,37.0,-100.00,NE,38,5.0,14.0,25,0.00,,,0.00,487.000000,,2013-03-19 22:44:00,
2013-03-19 17:53:00,75.0,37.0,-100.00,NE,38,5.0,14.0,25,0.00,,,0.00,487.000000,,2013-03-19 22:53:00,
2013-03-19 18:02:00,75.0,37.0,-100.00,NE,38,5.0,14.0,25,0.00,,,0.00,487.000000,,2013-03-19 23:02:00,
2013-03-19 18:33:00,71.0,37.0,-100.00,NE,55,6.0,11.0,29,0.00,,,0.00,242.000000,,2013-03-19 23:33:00,
2013-03-19 18:43:00,71.0,37.0,-100.00,NE,55,6.0,11.0,29,0.00,,,0.00,242.000000,,2013-03-19 23:43:00,
2013-03-19 18:53:00,71.0,37.0,-100.00,NE,55,6.0,11.0,29,0.00,,,0.00,242.000000,,2013-03-19 23:53:00,
2013-03-19 19:03:00,71.0,37.0,-100.00,NE,55,6.0,11.0,29,0.00,,,0.00,242.000000,,2013-03-20 00:03:00,
2013-03-19 19:33:00,67.0,38.0,-100.00,ENE,63,4.0,6.0,34,0.00,,,-99.99,41.000000,,2013-03-20 00:33:00,
2013-03-19 19:43:00,67.0,38.0,-100.00,ENE,63,4.0,6.0,34,0.00,,,-99.99,41.000000,,2013-03-20 00:43:00,
2013-03-19 19:52:00,67.0,38.0,-100.00,ENE,63,4.0,6.0,34,0.00,,,-99.99,41.000000,,2013-03-20 00:52:00,
2013-03-19 20:03:00,67.0,38.0,-100.00,ENE,63,4.0,6.0,34,0.00,,,-99.99,41.000000,,2013-03-20 01:03:00,
2013-03-19 20:32:00,64.0,38.0,-100.00,NNE,29,4.0,7.0,38,0.00,,,0.00,1.000000,,2013-03-20 01:32:00,
2013-03-19 20:43:00,64.0,38.0,-100.00,NNE,29,4.0,7.0,38,0.00,,,0.00,1.000000,,2013-03-20 01:43:00,
2013-03-19 20:53:00,64.0,38.0,-100.00,NNE,29,4.0,7.0,38,0.00,,,0.00,1.000000,,2013-03-20 01:53:00,
2013-03-19 21:02:00,64.0,38.0,-100.00,NNE,29,4.0,7.0,38,0.00,,,0.00,1.000000,,2013-03-20 02:02:00,
2013-03-19 21:32:00,63.0,38.0,-100.00,NNE,29,6.0,9.0,39,0.00,,,0.00,0.000000,,2013-03-20 02:32:00,
2013-03-19 21:43:00,63.0,38.0,-100.00,NNE,29,6.0,9.0,39,0.00,,,0.00,0.000000,,2013-03-20 02:43:00,
2013-03-19 21:53:00,63.0,38.0,-100.00,NNE,29,6.0,9.0,39,0.00,,,0.00,0.000000,,2013-03-20 02:53:00,
2013-03-19 22:02:00,63.0,38.0,-100.00,NNE,29,6.0,9.0,39,0.00,,,0.00,0.000000,,2013-03-20 03:02:00,
2013-03-19 22:34:00,61.0,36.0,-100.00,NE,46,6.0,11.0,39,0.00,,,0.00,0.000000,,2013-03-20 03:34:00,
2013-03-19 22:43:00,61.0,36.0,-100.00,NE,46,6.0,11.0,39,0.00,,,0.00,0.000000,,2013-03-20 03:43:00,
2013-03-19 22:53:00,61.0,36.0,-100.00,NE,46,6.0,11.0,39,0.00,,,0.00,0.000000,,2013-03-20 03:53:00,
2013-03-19 23:03:00,61.0,36.0,-100.00,NE,46,6.0,11.0,39,0.00,,,0.00,0.000000,,2013-03-20 04:03:00,
2013-03-19 23:32:00,60.0,36.0,-100.00,NE,53,5.0,8.0,41,0.00,,,0.00,0.000000,,2013-03-20 04:32:00,
2013-03-19 23:43:00,60.0,36.0,-100.00,NE,53,5.0,8.0,41,0.00,,,0.00,0.000000,,2013-03-20 04:43:00,
2013-03-19 23:53:00,60.0,36.0,-100.00,NE,53,5.0,8.0,41,0.00,,,0.00,0.000000,,2013-03-20 04:53:00,